Location: Clarion
(42.7316°N, 93.7330°W)
Time: 08:15:41
(UTC+00:00)

ATLAS 3B R/B - Pass Details

Date: 22 April 2026
Orbit: 937 x 1257 km, 63.8° (Epoch: 16 May)

Event Time Altitude Azimuth Distance (km) Brightness Sun altitude
Rises 06:40:42 0° 324° (NW) 4,203 6.4 -34.7°
Reaches altitude 10° 06:43:33 10° 326° (NW) 3,216 5.7 -34.6°
Enters shadow 06:50:57 78° 10° (N) 1,226 2.9 -34.4°
